Theta_e
281 280 280 279 278 278 278 277 276 275 274 272 272 271 270 270 269 269 270 271 272 273 274 275 277 278 279 280 280 281 282 283
281 280 279 278 277 277 276 276 275 274 273 272 271 270 270 269 269 269 270 270 272 273 274 275 276 277 279 279 280 280 281 282
280 278 277 277 276 276 275 275 274 272 272 271 270 269 268 268 268 269 269 270 271 272 273 274 275 276 279 278 280 280 280 281
279 278 277 276 276 275 274 273 272 271 270 269 268 268 267 265 266 267 267 268 270 271 271 272 274 276 279 279 279 280 279 280
278 278 277 277 275 274 273 272 271 270 269 268 267 266 265 263 262 263 265 267 268 269 270 271 274 278 279 278 278 278 279 280
278 277 277 275 274 273 272 270 269 267 265 262 265 263 261 258 258 259 262 264 264 267 268 270 274 279 279 277 277 276 277 279
280 278 277 276 273 272 269 268 268 263 258 257 258 258 256 255 256 257 260 261 262 265 267 269 273 281 281 278 276 276 275 275
279 278 278 276 274 268 267 267 263 260 257 254 254 255 254 255 255 258 258 260 262 263 267 267 270 280 280 278 275 275 274 274
280 279 278 275 272 267 265 263 261 258 257 255 255 255 256 256 256 257 259 260 263 264 265 267 269 278 279 277 275 275 274 274
281 279 276 272 268 265 262 261 260 258 258 257 258 257 256 257 256 257 261 264 263 266 265 266 267 276 279 276 274 274 273 273
279 277 273 268 267 265 262 261 260 259 260 258 259 260 257 257 258 259 262 266 268 268 266 266 267 273 278 277 273 272 272 271
275 273 271 267 267 264 262 262 263 262 261 260 260 262 262 262 263 263 263 264 262 265 267 266 267 268 277 277 273 273 270 270
274 271 267 267 268 264 264 264 263 263 263 262 262 266 266 265 266 265 265 265 264 265 266 268 269 272 275 275 275 275 270 268
271 266 266 268 269 266 265 264 263 263 263 262 264 267 267 266 266 265 266 265 266 266 265 266 269 270 274 274 274 273 269 270
268 266 266 268 269 268 265 265 264 263 263 263 264 264 265 267 267 265 263 263 266 266 264 265 267 271 272 271 270 270 268 266
269 267 267 268 267 265 265 265 264 263 264 264 264 264 265 265 264 266 266 266 262 261 263 261 265 272 274 272 270 268 267 259
268 268 267 267 265 266 265 265 264 263 264 264 264 263 264 263 262 271 271 273 273 273 270 268 274 275 274 272 272 270 268 256
268 268 267 266 265 265 265 265 265 265 264 263 264 263 261 261 261 259 262 270 271 271 272 273 273 273 273 271 269 269 262 256
269 267 268 267 265 265 265 265 265 264 264 264 263 262 260 260 259 258 256 255 256 264 268 271 272 271 271 269 263 254 257 251
268 268 267 267 264 264 264 265 264 264 263 263 262 261 260 259 258 256 254 252 251 251 261 260 268 269 268 265 252 249 250 250
Wind_Speed
14 13 11 10 9 8 8 7 6 5 4 4 4 5 4 5 7 8 7 8 10 10 10 10 10 11 10 9 10 12 11 10
14 12 11 10 10 9 8 8 5 5 5 5 4 5 5 6 6 7 9 9 10 11 10 10 10 11 10 10 12 13 14 14
14 14 13 12 11 10 8 8 6 5 5 6 5 5 5 7 8 8 8 9 9 10 10 9 10 10 11 12 12 12 13 14
14 15 14 13 11 10 9 8 7 6 5 5 5 4 5 6 7 7 7 7 9 9 10 10 10 10 10 11 10 10 12 13
14 15 14 13 13 11 9 8 8 7 5 5 4 3 4 4 4 5 5 5 7 7 8 8 9 10 8 10 10 11 10 12
17 15 15 14 13 11 10 9 8 7 6 4 4 3 2 4 4 4 5 4 5 6 7 8 8 9 10 9 9 10 11 11
17 18 18 18 14 13 11 9 9 7 7 4 3 1 3 4 5 4 4 4 4 6 6 8 8 18 18 15 10 10 10 12
23 22 19 19 17 15 13 10 9 8 6 4 4 2 3 2 3 3 5 4 5 6 7 7 9 21 18 19 9 10 9 10
18 17 17 17 15 15 13 11 9 8 7 5 5 3 3 2 3 4 3 4 4 5 6 6 7 20 19 16 8 8 8 9
17 17 17 18 17 17 13 11 10 9 8 6 6 4 4 3 2 2 3 3 3 4 6 8 8 20 21 12 8 8 8 8
17 17 18 16 18 18 15 13 11 11 10 7 6 5 5 3 1 1 1 3 3 5 4 5 8 18 22 18 7 8 7 7
18 18 18 19 19 17 15 14 11 10 10 8 6 6 5 3 1 2 3 3 4 4 5 6 6 10 22 23 8 7 7 7
15 14 16 18 18 17 16 12 12 12 11 9 7 5 5 5 3 2 2 2 4 5 6 6 7 13 19 22 19 18 7 7
15 17 14 16 17 19 14 16 14 13 12 9 7 5 6 5 4 3 2 2 3 3 4 6 7 6 17 21 21 18 9 8
16 17 17 14 14 14 17 16 15 14 12 9 8 6 4 4 3 3 1 1 1 1 2 5 6 5 7 8 8 13 10 12
15 16 18 16 14 16 17 17 14 13 12 10 7 7 6 4 4 2 3 3 2 2 2 2 5 8 15 14 9 8 10 5
14 16 18 16 15 16 16 17 16 14 10 9 8 6 5 5 1 4 3 4 5 6 4 1 9 13 16 17 18 19 15 5
17 17 18 17 16 15 16 15 15 13 12 9 8 7 6 4 4 4 3 4 6 5 7 7 9 11 14 14 14 18 13 6
16 17 17 17 16 15 15 14 13 12 13 10 8 7 5 5 4 4 4 3 2 5 5 8 8 9 12 10 8 5 8 3
15 16 16 17 15 15 15 15 14 11 10 9 7 6 6 4 4 4 4 3 1 3 3 6 7 8 10 11 3 2 3 3
Wind_Direction
169 165 162 155 149 144 143 141 130 105 88 80 50 31 2 10 9 354 341 344 338 337 338 340 337 332 339 347 353 354 355 356
168 164 155 144 146 145 139 134 121 108 103 87 60 36 19 26 5 352 343 351 343 338 339 341 337 334 345 352 358 358 355 356
164 155 153 155 151 151 146 130 122 119 106 91 69 43 28 29 5 356 351 354 343 343 342 343 336 334 344 2 358 358 357 354
162 165 163 160 156 151 143 133 131 123 114 95 75 50 38 32 4 355 345 356 351 351 348 342 333 329 348 2 350 350 358 354
172 171 165 162 157 151 141 136 137 126 118 112 91 56 51 36 352 342 330 357 353 345 339 335 322 333 360 7 357 352 352 353
180 173 164 160 157 150 141 141 134 129 117 113 107 84 47 26 347 338 357 349 349 340 348 341 336 341 13 17 357 356 352 346
181 173 171 168 161 152 146 140 138 131 134 139 106 58 53 18 349 348 346 349 2 3 350 349 353 354 14 18 358 4 357 351
186 181 174 169 159 158 146 137 136 140 139 140 123 137 68 7 15 2 356 339 358 358 360 348 344 6 19 17 1 357 357 355
181 174 167 157 150 137 140 139 146 143 142 152 133 154 93 63 40 11 1 340 348 356 355 344 341 357 12 22 5 356 357 351
177 166 154 153 145 138 139 141 144 156 159 153 149 161 112 85 32 335 19 360 344 354 354 356 335 356 1 31 9 352 355 350
156 148 145 147 144 143 150 152 165 172 159 149 161 150 142 166 138 302 343 22 6 1 347 331 338 344 8 16 4 347 354 351
146 155 152 149 149 149 150 170 168 152 140 148 161 162 149 156 126 83 56 33 358 3 338 329 342 329 6 7 9 356 360 351
141 141 146 154 151 150 163 156 148 151 145 150 162 165 146 132 105 86 74 35 360 351 360 343 340 345 13 8 10 5 10 349
141 138 150 161 160 155 159 150 151 149 146 152 158 158 144 137 132 109 94 68 44 26 356 344 342 326 17 10 12 10 14 355
142 147 153 165 162 154 152 151 151 149 149 151 152 152 137 142 150 129 119 82 79 61 8 333 339 350 17 10 12 5 10 4
156 157 158 159 151 151 154 151 150 149 148 153 152 158 149 157 155 158 219 179 186 221 160 330 333 10 23 15 18 11 22 356
158 155 157 156 151 154 157 157 152 151 150 153 153 158 158 148 116 171 132 106 63 57 89 302 6 19 30 25 31 33 34 24
165 158 157 153 153 159 159 158 156 153 151 147 151 156 151 157 157 145 350 83 69 51 46 28 29 28 38 37 38 44 44 47
156 158 158 157 158 159 156 155 154 151 146 151 158 151 150 164 157 130 142 160 315 357 36 19 35 37 47 41 43 24 26 22
151 158 159 161 156 158 158 158 152 144 149 146 143 146 148 143 131 134 127 142 154 339 345 7 18 50 52 50 75 63 17 352